Location: Cabeza de los Veneras
(40.2000°N, 5.2000°W)
Time: 05:00:08
(UTC+00:00)

BlueWalker 3 - Pass Details

Date: 25 June 2024
Orbit: 480 x 491 km, 53.2° (Epoch: 21 July)

Event Time Altitude Azimuth Distance (km) Brightness Sun altitude
Rises 01:45:06 0° 310° (NW) 2,538 5.8 -23.6°
Reaches altitude 10° 01:47:17 10° 312° (NW) 1,656 4.8 -23.5°
Enters shadow 01:50:04 48° 325° (NW) 638 2.6 -23.3°
